User: anonymous   Login
Location: Unspecified
(0.0000°N, 0.0000°E)
Time: 23:33:27
(UTC+00:00)
Language:

OBJECT E - Orbit

View from above orbital plane
View from above orbital plane
View from above satellite
View from above satellite

Ground track
Ground track

The orbit is defined by the following mean orbital elements,

1 67750U          26145.32128492 +.00000000 +00000-0 +28696-3 0 00001
2 67750  97.5042 273.7414 0008167 310.5042  49.5480 15.19234798    08
Epoch (UTC): 25 May 2026 07:42:39
Eccentricity: 0.0008167
inclination: 97.5042°
perigee height: 503 km
apogee height: 514 km
right ascension of ascending node: 273.7414°
argument of perigee: 310.5042°
revolutions per day: 15.19234798
mean anomaly at epoch: 49.5480°

The dashed part of the orbit path shows where the satellite is in the earth's shadow,  

DLR